Wind_Speed
12 12 12 12 13 13 11 11 10 10 10 10 10 10 10 9 8 7 7 7 6 6 6 6 6 6 6 6 6 6 6 6 6 6 6 6 7 6 5 5 4 5 5 6 7 7 6 6 6
13 13 12 13 14 12 11 11 11 11 11 11 11 11 10 10 9 8 8 8 7 7 7 7 7 7 7 6 6 6 6 7 6 6 7 7 6 6 5 4 4 4 4 5 7 7 6 6 6
12 12 13 14 13 12 12 12 12 12 12 12 11 11 11 10 9 9 8 8 8 8 7 7 7 7 7 6 4 5 7 7 7 6 8 7 6 5 4 3 3 4 4 4 6 7 7 7 6
12 12 14 14 13 12 12 12 12 13 12 12 12 11 10 10 10 9 9 8 8 8 7 7 7 7 7 7 7 7 8 7 6 7 7 6 6 5 4 3 3 4 4 4 5 6 7 7 6
12 13 15 13 13 12 12 12 12 12 12 12 12 12 11 10 10 9 9 8 8 8 8 7 7 7 7 7 8 9 8 7 6 6 6 5 5 4 4 4 3 3 4 4 5 5 6 6 6
12 13 13 13 12 12 12 12 12 12 12 12 12 12 12 11 10 10 9 9 8 8 8 8 7 7 7 7 7 7 7 7 7 6 6 5 4 4 4 4 4 4 4 4 4 4 4 4 4
13 13 13 12 12 12 12 11 12 12 12 12 12 12 11 11 11 10 10 9 9 9 8 8 7 7 7 6 6 5 5 5 5 5 4 4 4 3 3 3 4 4 4 4 3 3 3 3 4
12 13 12 12 12 11 11 11 12 12 12 12 12 12 11 11 11 11 11 10 10 9 8 8 7 7 6 6 5 5 5 5 4 4 3 3 3 3 3 3 2 2 3 3 3 3 3 3 3
11 12 10 10 11 11 11 11 11 12 12 12 12 12 11 11 11 11 11 10 10 9 8 8 7 7 6 5 5 4 4 4 3 3 2 1 1 1 1 2 2 2 2 2 2 3 3 3 3
10 10 9 9 10 10 10 11 11 12 12 12 12 11 11 11 11 10 10 9 9 9 8 7 6 6 5 5 4 4 3 2 2 2 2 1 1 1 1 1 1 2 2 2 2 2 3 3 4
9 10 9 8 8 9 10 11 11 11 11 12 11 11 11 11 11 10 9 8 8 8 8 7 6 5 5 4 4 3 3 2 2 2 1 1 0 0 0 1 1 1 1 1 2 2 3 3 4
8 9 8 8 8 8 9 10 11 10 10 10 10 10 10 10 10 9 8 8 7 7 8 8 7 7 5 4 4 3 3 2 1 1 1 1 1 1 0 0 1 1 2 2 3 3 3 4 4
7 7 7 7 7 8 8 9 10 10 10 9 9 9 9 10 10 9 8 7 7 6 7 7 7 7 6 6 5 4 3 2 2 2 1 1 1 1 1 1 1 1 2 2 3 4 4 4 5
6 6 6 7 7 7 7 8 9 9 9 9 9 9 9 9 9 8 8 7 6 6 6 6 6 6 6 6 6 5 4 3 2 2 1 1 1 2 2 1 1 2 2 4 4 4 5 5 5
5 5 5 6 6 6 6 7 8 8 8 8 8 8 9 9 9 8 8 8 7 6 5 5 5 6 6 6 6 6 5 4 3 2 2 2 2 2 2 2 2 3 3 3 4 4 5 5 6
3 4 4 4 5 6 6 6 7 7 7 7 7 7 8 8 8 7 7 7 7 6 6 5 5 6 6 6 6 6 5 4 4 3 3 3 3 3 3 3 3 2 3 3 4 4 5 6 6
2 2 2 3 4 5 5 5 6 7 7 6 6 7 7 7 7 6 6 7 7 6 6 6 6 6 6 6 6 6 5 4 4 3 4 4 3 3 3 3 3 4 4 4 4 5 5 6 7
1 1 2 3 4 5 5 6 6 7 7 7 7 6 6 7 6 6 6 6 7 6 6 6 6 6 7 7 7 7 6 5 5 4 4 5 5 4 4 4 4 5 5 5 6 6 6 7 7
3 2 2 3 4 4 5 6 6 7 7 6 7 7 7 7 6 5 5 6 7 7 6 7 7 7 7 6 6 6 6 6 6 6 6 6 6 5 5 6 6 6 6 6 6 7 7 7 7
3 3 3 4 4 5 5 6 6 6 6 6 6 6 7 7 6 6 6 7 8 8 7 7 7 7 7 7 7 6 6 7 7 7 7 7 7 6 6 7 7 7 8 8 8 8 8 8 9
5 4 4 5 6 6 7 7 7 6 7 7 7 7 8 7 7 7 7 7 8 8 8 8 8 7 7 7 7 6 7 8 8 8 8 8 8 8 7 8 9 9 10 10 10 9 9 10 10
7 6 6 6 7 7 7 7 7 7 7 7 7 8 8 8 8 8 8 8 8 8 8 8 8 8 8 7 6 7 8 9 8 8 9 9 9 9 9 9 10 10 10 10 10 11 11 12 12
8 8 8 8 8 8 8 8 8 8 8 8 8 8 9 8 9 9 9 9 9 8 9 8 9 8 8 8 8 9 9 10 10 10 10 11 11 11 11 11 11 11 11 11 12 13 13 13 13
9 8 9 9 8 9 10 9 9 9 9 9 9 9 9 9 9 10 10 9 9 9 9 9 9 9 8 9 9 10 10 11 11 12 11 12 12 12 13 13 13 12 13 13 14 14 15 15 15
8 7 8 8 8 9 10 10 9 9 10 10 10 10 10 10 9 10 11 10 10 10 10 10 10 9 9 10 10 11 12 12 13 13 13 14 14 14 13 13 14 13 14 14 14 15 15 16 16
9 9 8 8 9 10 11 10 10 11 11 11 11 11 11 11 11 11 11 11 11 11 10 10 11 11 11 12 12 12 13 14 15 15 15 15 15 14 14 14 14 14 14 15 15 16 16 16 16
10 10 10 10 10 9 10 11 11 11 11 12 12 11 11 11 12 12 12 12 12 11 11 12 12 13 14 14 14 14 14 15 16 16 16 16 16 16 15 15 15 15 16 17 17 17 17 18 18
10 9 9 8 10 10 11 12 12 12 12 13 12 12 12 12 13 13 13 13 13 13 13 14 15 16 16 16 16 16 17 17 17 17 17 17 17 16 16 16 17 17 18 18 19 19 19 19 19
12 11 11 11 11 11 12 14 14 14 14 14 14 13 14 14 15 15 15 16 15 15 15 15 16 16 17 17 17 18 18 18 18 18 18 18 18 18 19 19 19 19 19 19 20 20 19 19 20
14 14 13 13 14 15 14 17 17 16 16 16 16 15 15 16 16 16 17 17 17 17 17 17 17 17 18 18 18 19 19 20 20 19 19 19 19 20 20 21 21 21 21 21 21 21 21 21 21
Wind_Direction
75 74 73 75 77 77 79 79 78 76 73 72 70 68 68 66 66 65 66 63 63 71 75 76 78 83 89 100 109 121 126 128 128 130 139 144 143 144 152 162 173 179 188 197 200 204 210 202 199
75 74 75 77 77 79 76 75 75 72 69 68 67 66 66 63 64 65 66 66 66 72 72 74 77 84 90 100 108 124 127 126 126 128 133 136 137 141 149 157 165 177 184 193 198 204 206 200 202
74 73 76 76 80 81 76 73 71 68 66 65 64 64 62 60 61 64 65 67 65 67 68 71 77 81 87 89 101 134 132 125 122 124 131 130 131 131 132 133 153 169 178 184 190 196 198 201 206
77 75 76 75 76 79 76 74 70 65 63 61 61 60 59 59 59 59 62 64 64 63 67 72 75 81 84 81 88 117 125 123 122 121 127 125 126 123 117 113 140 161 174 180 184 189 195 201 204
81 78 74 75 76 76 73 71 66 61 58 58 58 58 58 60 59 59 61 63 64 64 68 71 77 79 80 81 93 111 113 115 118 122 124 123 125 122 116 112 122 142 159 168 177 182 194 200 202
84 80 79 76 75 74 72 68 64 61 60 60 60 59 57 58 59 59 61 64 63 66 71 72 74 81 82 83 88 101 108 116 116 124 124 124 124 118 109 102 104 116 141 156 166 175 192 194 185
86 85 85 80 74 70 69 67 64 62 59 59 59 57 56 57 59 59 60 64 66 69 73 74 72 79 80 83 87 96 101 110 111 114 121 125 126 120 113 105 110 126 144 156 162 170 183 183 190
88 86 81 79 74 71 69 64 62 61 59 56 58 57 55 57 57 57 60 64 67 69 71 71 68 71 74 76 76 87 94 97 96 103 108 116 121 121 113 109 112 131 160 169 174 180 183 192 205
88 84 83 81 77 71 66 61 57 57 56 56 56 55 53 54 56 57 60 62 63 65 67 65 64 67 71 73 69 71 79 83 86 85 86 91 98 113 117 117 113 118 152 175 177 183 191 213 223
87 87 84 81 77 71 63 57 54 52 52 55 53 51 51 51 55 56 58 58 57 58 61 60 59 58 61 65 64 64 70 75 71 74 71 64 103 126 167 157 145 140 150 172 187 189 209 229 226
87 84 82 74 73 65 60 54 52 50 50 52 50 50 49 49 51 51 53 55 57 56 58 58 53 52 53 57 56 52 59 68 73 72 46 28 8 120 175 203 193 184 194 213 208 207 224 233 229
85 83 77 70 66 59 53 48 47 48 46 46 46 46 45 46 44 43 46 51 56 57 52 48 45 42 44 43 42 39 37 33 34 345 339 358 337 311 194 220 257 261 257 240 223 223 228 233 241
85 79 69 61 57 54 49 44 42 42 40 39 39 41 41 41 37 38 42 44 47 48 46 44 39 36 37 33 33 28 13 356 330 305 293 272 318 307 257 246 211 243 255 246 243 240 236 241 250
74 66 56 53 53 49 47 42 38 37 32 31 33 35 35 36 33 32 33 34 34 38 37 31 30 27 22 24 24 20 8 355 346 322 300 312 323 324 314 291 265 267 262 265 262 256 249 249 257
63 53 43 44 41 39 33 33 33 31 25 24 26 30 29 30 28 27 29 29 31 35 31 25 19 15 16 15 14 9 2 355 359 355 356 343 332 332 314 294 295 301 291 282 270 264 260 260 262
58 48 34 29 29 27 21 22 13 19 17 13 14 18 21 24 21 19 19 23 29 32 32 24 15 8 7 4 2 1 359 0 360 354 357 347 327 323 311 299 304 314 302 292 290 277 268 265 262
34 27 2 358 4 10 14 9 4 8 6 3 2 2 5 8 8 10 12 12 19 23 23 16 10 3 359 354 354 355 357 356 346 341 355 349 344 333 320 312 313 309 303 298 295 289 279 273 271
245 285 321 333 347 0 7 2 356 1 360 357 354 354 353 352 355 359 359 359 2 5 5 5 3 357 355 354 356 359 3 6 350 337 335 339 332 324 315 307 306 305 301 299 295 290 283 278 276
245 261 288 311 328 341 353 358 353 357 1 360 358 353 346 343 347 349 350 351 350 351 354 357 353 351 351 351 351 353 354 354 353 350 339 340 335 319 311 299 295 297 298 298 296 289 284 280 280
253 262 274 293 311 324 333 348 346 348 356 356 357 354 346 339 341 345 344 344 343 345 348 349 346 347 348 347 346 347 348 347 345 346 345 339 325 315 306 299 294 292 291 292 292 287 285 282 281
251 261 273 282 299 315 324 340 344 341 346 349 349 345 345 340 337 338 335 333 334 338 338 336 338 339 341 340 343 341 339 340 338 334 330 326 320 310 305 299 296 290 288 288 288 286 285 285 285
250 256 271 285 297 307 316 325 334 335 338 343 341 337 337 333 331 333 330 324 324 326 329 330 332 333 331 337 337 339 337 334 328 323 319 316 315 307 301 299 299 293 288 288 288 289 286 286 285
249 262 274 286 289 292 304 310 311 320 323 325 327 325 328 330 329 329 328 323 319 319 322 321 323 323 324 328 329 328 328 326 323 320 315 313 311 307 301 297 297 295 293 289 288 289 287 287 285
263 278 286 292 292 288 293 299 296 307 315 318 315 314 317 319 322 323 322 319 317 315 315 315 315 318 318 318 319 320 319 319 319 318 316 317 317 312 304 297 295 294 292 290 289 288 287 286 285
267 281 295 299 296 288 286 289 288 295 307 314 313 312 312 313 312 316 316 315 312 310 309 312 316 317 315 314 316 317 315 315 315 313 313 313 312 312 308 299 295 292 291 290 290 288 288 287 286
264 266 272 280 283 284 287 288 289 295 304 311 313 309 309 309 308 309 312 313 312 308 305 308 312 314 313 312 311 312 313 314 314 313 311 308 306 305 304 301 298 296 295 294 293 289 288 287 287
263 263 267 274 282 285 285 290 293 298 303 308 310 308 305 306 306 306 305 307 308 308 305 306 309 309 310 310 309 311 311 312 313 312 311 307 304 303 301 300 297 295 294 293 291 291 288 286 285
260 266 274 272 275 281 286 289 290 298 304 306 306 305 301 299 300 301 302 304 306 305 304 306 306 306 307 310 310 312 312 310 310 310 308 306 303 300 299 298 295 293 293 293 291 288 288 286 286
261 266 271 270 269 274 281 283 289 293 296 300 300 299 296 294 295 298 298 299 301 301 302 303 304 305 307 310 310 309 309 307 307 307 305 304 304 299 297 295 293 292 291 290 292 292 290 289 288
260 260 266 271 276 277 277 280 286 288 291 293 295 295 293 293 295 296 296 295 296 297 298 300 301 303 305 306 305 305 305 305 305 305 304 304 305 303 298 295 293 291 290 290 290 291 291 290 291
Height
5894 5893 5893 5894 5894 5894 5893 5892 5891 5890 5889 5888 5886 5885 5884 5884 5884 5885 5882 5879 5879 5877 5876 5876 5875 5874 5873 5873 5873 5872 5873 5873 5873 5873 5874 5874 5874 5874 5874 5874 5873 5873 5873 5873 5875 5876 5877 5878 5879
5896 5895 5896 5896 5896 5896 5895 5894 5892 5891 5890 5888 5887 5886 5885 5884 5884 5883 5881 5880 5879 5878 5877 5876 5875 5875 5874 5873 5872 5872 5873 5873 5873 5873 5874 5874 5874 5874 5874 5873 5871 5871 5870 5871 5872 5874 5876 5877 5878
5897 5897 5898 5897 5897 5897 5896 5895 5894 5892 5891 5890 5888 5887 5887 5885 5884 5883 5882 5881 5880 5879 5878 5877 5877 5876 5875 5873 5870 5868 5871 5873 5874 5874 5874 5875 5875 5874 5873 5872 5870 5869 5869 5869 5871 5873 5875 5876 5878
5900 5900 5900 5900 5899 5898 5897 5896 5895 5894 5892 5891 5890 5889 5887 5886 5885 5884 5883 5882 5881 5880 5879 5878 5878 5877 5875 5873 5868 5867 5871 5874 5874 5875 5875 5875 5875 5874 5873 5871 5870 5869 5869 5869 5870 5872 5874 5875 5877
5902 5902 5902 5902 5901 5900 5899 5898 5896 5895 5893 5892 5891 5890 5888 5887 5886 5885 5884 5883 5882 5881 5880 5879 5879 5878 5877 5875 5873 5873 5874 5875 5875 5875 5875 5875 5875 5875 5873 5871 5870 5869 5869 5869 5871 5872 5874 5875 5876
5904 5904 5905 5904 5903 5902 5901 5899 5898 5896 5895 5893 5892 5891 5890 5888 5887 5886 5885 5884 5883 5882 5881 5880 5880 5879 5878 5877 5877 5876 5876 5876 5876 5876 5876 5876 5876 5875 5874 5873 5872 5870 5870 5871 5872 5873 5874 5875 5876
5906 5906 5906 5906 5905 5904 5903 5901 5899 5898 5896 5895 5893 5892 5891 5889 5888 5887 5886 5885 5884 5882 5882 5881 5881 5880 5879 5879 5878 5878 5877 5877 5877 5877 5877 5876 5876 5876 5875 5874 5873 5873 5872 5873 5873 5874 5875 5875 5876
5908 5909 5908 5908 5907 5906 5904 5903 5901 5899 5898 5896 5895 5894 5892 5891 5889 5888 5887 5886 5885 5884 5883 5882 5882 5881 5880 5880 5879 5879 5878 5878 5878 5878 5877 5877 5877 5876 5876 5875 5875 5874 5874 5874 5875 5875 5875 5876 5876
5910 5912 5911 5910 5908 5907 5906 5904 5903 5901 5899 5897 5896 5895 5894 5892 5891 5889 5888 5887 5886 5885 5884 5883 5882 5882 5881 5881 5880 5880 5879 5879 5879 5878 5878 5877 5877 5877 5876 5876 5875 5875 5875 5875 5875 5875 5875 5876 5876
5912 5913 5912 5911 5910 5909 5907 5906 5904 5902 5901 5899 5898 5896 5895 5894 5892 5891 5890 5889 5887 5886 5885 5884 5883 5882 5882 5881 5881 5880 5880 5879 5879 5879 5878 5878 5877 5877 5876 5876 5875 5875 5875 5874 5875 5875 5875 5876 5876
5914 5913 5913 5911 5911 5910 5908 5907 5905 5904 5902 5901 5900 5898 5897 5895 5894 5892 5891 5890 5889 5887 5886 5885 5884 5883 5882 5882 5881 5880 5880 5879 5879 5879 5878 5878 5877 5877 5876 5876 5876 5875 5875 5874 5874 5875 5875 5875 5875
5915 5914 5913 5913 5912 5911 5910 5908 5907 5905 5904 5903 5901 5899 5898 5897 5895 5894 5892 5891 5890 5888 5887 5886 5885 5884 5883 5882 5881 5881 5880 5879 5879 5878 5878 5878 5877 5877 5876 5876 5875 5875 5875 5874 5874 5874 5874 5875 5874
5916 5916 5915 5914 5913 5912 5911 5909 5908 5906 5905 5904 5902 5901 5899 5898 5896 5895 5893 5892 5891 5889 5888 5887 5886 5885 5884 5883 5881 5881 5880 5879 5879 5878 5877 5877 5877 5876 5876 5875 5875 5875 5874 5874 5874 5874 5874 5874 5874
5917 5916 5916 5915 5914 5913 5912 5911 5909 5908 5906 5905 5903 5902 5900 5899 5897 5896 5894 5893 5891 5890 5889 5887 5886 5885 5884 5883 5882 5881 5880 5879 5878 5877 5877 5876 5876 5876 5875 5875 5874 5874 5874 5873 5873 5873 5872 5872 5872
5918 5918 5917 5916 5915 5914 5914 5912 5911 5909 5907 5906 5904 5903 5901 5900 5898 5897 5895 5894 5892 5890 5889 5888 5887 5886 5884 5883 5882 5881 5880 5879 5878 5877 5876 5876 5875 5875 5875 5874 5874 5873 5872 5872 5872 5872 5871 5871 5871
5919 5919 5919 5918 5916 5915 5916 5914 5912 5910 5908 5906 5905 5904 5902 5900 5898 5897 5895 5894 5892 5891 5890 5888 5887 5886 5885 5883 5882 5881 5880 5879 5878 5877 5876 5876 5875 5874 5874 5873 5873 5872 5872 5871 5871 5871 5870 5870 5869
5920 5920 5919 5919 5917 5916 5915 5914 5913 5910 5909 5907 5906 5904 5902 5901 5899 5897 5896 5894 5893 5891 5890 5889 5887 5886 5885 5883 5882 5881 5880 5878 5877 5877 5876 5875 5874 5874 5873 5872 5872 5871 5871 5871 5870 5869 5869 5868 5868
5920 5920 5919 5919 5917 5916 5915 5914 5912 5911 5909 5907 5906 5904 5903 5901 5899 5898 5896 5894 5893 5892 5890 5889 5887 5886 5885 5883 5882 5881 5879 5877 5877 5876 5875 5874 5873 5872 5872 5871 5871 5870 5870 5869 5868 5868 5867 5866 5866
5918 5919 5919 5918 5917 5916 5915 5914 5912 5911 5909 5907 5906 5904 5903 5901 5899 5898 5896 5894 5893 5892 5890 5889 5887 5886 5884 5883 5882 5880 5879 5877 5876 5875 5874 5873 5872 5871 5870 5870 5869 5869 5868 5867 5866 5866 5865 5864 5864
5917 5918 5918 5918 5916 5916 5915 5914 5912 5910 5909 5907 5906 5904 5903 5901 5899 5898 5896 5894 5893 5891 5890 5888 5887 5885 5884 5882 5881 5880 5879 5877 5875 5874 5873 5872 5871 5870 5869 5868 5867 5866 5866 5865 5864 5863 5862 5862 5861
5916 5917 5917 5917 5916 5915 5914 5913 5912 5910 5908 5907 5905 5904 5902 5900 5899 5897 5895 5894 5892 5891 5889 5887 5886 5885 5883 5882 5880 5879 5878 5876 5875 5873 5872 5870 5869 5868 5867 5866 5865 5864 5863 5862 5861 5860 5860 5859 5858
5915 5915 5915 5915 5915 5914 5914 5913 5912 5909 5908 5906 5904 5903 5901 5900 5898 5896 5895 5893 5891 5890 5888 5886 5885 5884 5882 5880 5879 5878 5876 5875 5874 5872 5870 5869 5867 5866 5864 5863 5862 5861 5860 5859 5858 5857 5856 5856 5855
5913 5913 5913 5913 5913 5913 5912 5912 5911 5908 5907 5905 5904 5902 5900 5899 5897 5895 5893 5892 5890 5889 5887 5885 5884 5882 5881 5879 5878 5876 5875 5873 5872 5870 5868 5867 5865 5863 5862 5861 5859 5858 5857 5856 5855 5854 5853 5852 5851
5911 5911 5911 5911 5911 5912 5911 5910 5910 5907 5905 5904 5902 5901 5899 5897 5896 5894 5892 5890 5889 5887 5885 5884 5882 5881 5879 5877 5876 5874 5873 5871 5869 5868 5866 5864 5862 5860 5859 5857 5856 5854 5853 5852 5851 5850 5850 5849 5847
5910 5911 5912 5912 5912 5911 5909 5908 5907 5905 5903 5902 5900 5899 5897 5896 5894 5892 5891 5889 5887 5885 5884 5882 5881 5879 5877 5875 5874 5872 5870 5869 5867 5865 5863 5861 5859 5857 5855 5853 5852 5851 5849 5848 5847 5846 5845 5844 5843
5908 5909 5911 5911 5911 5909 5906 5905 5904 5902 5901 5899 5898 5896 5895 5893 5892 5890 5889 5887 5885 5883 5882 5880 5878 5877 5875 5873 5871 5870 5868 5866 5864 5862 5859 5857 5855 5854 5852 5850 5849 5847 5846 5844 5843 5842 5841 5839 5838
5905 5906 5907 5907 5906 5906 5905 5902 5901 5899 5898 5897 5895 5894 5893 5891 5889 5888 5886 5885 5883 5881 5879 5878 5876 5874 5872 5871 5869 5867 5864 5862 5860 5858 5856 5854 5852 5850 5848 5846 5845 5843 5841 5840 5838 5837 5835 5834 5833
5903 5903 5903 5904 5903 5904 5903 5901 5899 5897 5896 5894 5893 5891 5890 5888 5887 5885 5883 5882 5880 5879 5877 5875 5873 5871 5869 5867 5865 5863 5861 5858 5856 5854 5852 5850 5848 5846 5844 5842 5840 5839 5837 5835 5833 5831 5830 5829 5827
5899 5900 5899 5900 5900 5900 5900 5901 5895 5894 5893 5891 5890 5888 5887 5885 5884 5882 5880 5879 5877 5876 5874 5872 5870 5868 5866 5864 5862 5859 5857 5854 5852 5850 5847 5845 5843 5841 5839 5837 5835 5833 5831 5830 5828 5826 5825 5823 5822
5895 5895 5896 5896 5895 5895 5895 5897 5891 5890 5889 5887 5886 5885 5883 5881 5880 5878 5877 5875 5873 5872 5870 5868 5866 5864 5862 5860 5858 5855 5853 5850 5847 5845 5842 5840 5838 5835 5833 5831 5829 5827 5826 5824 5822 5820 5819 5817 5816